Regional Weather Roundup
Issued by NWS

Home | Current Version | Previous Version | Text Only | Print | Product List | Glossary On
Versions: 1 2 3 4 5 6 7 8 9 10 11 12 13 14 15 16 17 18 19 20 21 22 23 24 25 26 27 28 29 30 31 32 33 34 35 36 37 38 39 40 41 42 43 44 45 46 47 48 49 50
000
ASUS46 KSEW 231310
RWRWA

WASHINGTON REGIONAL WEATHER ROUNDUP
NATIONAL WEATHER SERVICE SEATTLE WA
600 AM PDT SUN APR 23 2017

NOTE:"FAIR" INDICATES FEW OR NO CLOUDS BELOW 12,000 FEET WITH NO
SIGNIFICANT WEATHER AND/OR OBSTRUCTIONS TO VISIBILITY.

WAZ507-509-555>559-231400-
SEATTLE, TACOMA, EVERETT, AND VICINITY

CITY           SKY/WX    TMP DP  RH WIND       PRES   REMARKS
EVERETT        CLOUDY    47  44  90 SE9       29.91F
BOEING FIELD   CLOUDY    46  46 100 SE3       29.92F
RENTON         MOCLDY    46  45  96 CALM      29.92F
SEATAC AIRPORT MOCLDY    47  44  90 SE6       29.92F
JBLM-MCCHORD   CLOUDY    41  41 100 CALM      29.91F FOG
PUYALLUP         N/A     45  45 100 CALM      29.91F
BREMERTON      NOT AVBL
JBLM-FT LEWIS  MOCLDY    41  40  97 S2        29.94F
TACOMA NARROWS CLOUDY    46  45  96 CALM      29.91F
$$

WAZ001-503-506-510-514-515-231400-
NORTH INTERIOR

CITY           SKY/WX    TMP DP  RH WIND       PRES   REMARKS
BELLINGHAM     CLOUDY    51  44  77 S13       29.89F
FRIDAY HARBOR  CLOUDY    48  46  93 CALM      29.90F
EASTSOUND      CLOUDY    48  46  93 S5        29.88S
PORT ANGELES   CLOUDY    45  45 100 CALM      29.89F
EDIZ HOOK      CLOUDY    48  45  88 CALM      29.90S
PORT TOWNSEND  NOT AVBL
NAS WHIDBEY    CLOUDY    51  43  74 S5        29.93F
ARLINGTON      CLOUDY    48  37  66 SE6       29.93F
BURLINGTON     CLOUDY    50  45  81 SE8       29.90F
$$

WAZ020-022-039-040-504-511-512-231400-
SOUTHWEST INTERIOR

CITY           SKY/WX    TMP DP  RH WIND       PRES   REMARKS
SHELTON        FOG       43  42  97 CALM      29.89F VSB 1/4
OLYMPIA        CLOUDY    45  45 100 SW5       29.92F
CHEHALIS       CLOUDY    45  45 100 SW5       29.92S
KELSO          CLOUDY    47  45  93 CALM      29.94F
VANCOUVER      CLOUDY    51  45  79 SE3       29.93F
SCAPPOOSE, OR  CLOUDY    46  45  96 CALM      29.93F
PORTLAND, OR   MOCLDY    49  43  80 SE5       29.94F
$$

WAZ021-516-517-231400-
WASHINGTON COAST

CITY           SKY/WX    TMP DP  RH WIND       PRES   REMARKS
FORKS          CLOUDY    46  45  96 CALM      29.87F
HOQUIAM        CLOUDY    48  48 100 NE8       29.89F
ASTORIA, OR    LGT RAIN  48  45  89 SE3       29.89F
$$

WAZ019-023-024-040-567>569-231400-
CASCADE MOUNTAINS AND COLUMBIA GORGE

CITY           SKY/WX    TMP DP  RH WIND       PRES   REMARKS
STAMPEDE PASS  CLOUDY    35  34  96 CALM      29.86F
TROUTDALE, OR  CLOUDY    49  45  86 CALM      29.94F
THE DALLES, OR CLOUDY    48  44  86 N3        29.93F
$$

WAZ026-027-041>044-520-521-231400-
EAST SLOPES

CITY           SKY/WX    TMP DP  RH WIND       PRES   REMARKS
OMAK           CLOUDY    38  32  79 NW5       29.85S
WENATCHEE      CLOUDY    44  36  73 S3        29.87S
ELLENSBURG     CLOUDY    42  36  79 NW9       29.88S
YAKIMA         CLOUDY    43  37  79 CALM      29.90S
SUNNYSIDE ARPT CLOUDY    43  40  88 CALM      29.90S
$$

WAZ028-034-035-231400-
COLUMBIA BASIN

CITY           SKY/WX    TMP DP  RH WIND       PRES   REMARKS
EPHRATA        CLOUDY    43  34  70 CALM      29.85S
MOSES LAKE     CLOUDY    45  38  76 CALM      29.87S
PASCO          CLOUDY    52  40  63 S3        29.91S
HERMISTON, OR  CLOUDY    50  42  74 CALM      29.91S
$$

WAZ036>038-231400-
NORTHEAST WASHINGTON

CITY           SKY/WX    TMP DP  RH WIND       PRES   REMARKS
SPOKANE GEIGER CLOUDY    44  38  79 SE5       29.85S
SPOKANE FELTS  CLOUDY    48  40  73 S6        29.87S
FAIRCHILD AFB  NOT AVBL
COEURDALENE,ID CLOUDY    44  40  85 S3        29.87
DEER PARK      MOCLDY    37  35  92 CALM      29.86S
$$

WAZ029>033-231400-
SOUTHEAST WASHINGTON

CITY           SKY/WX    TMP DP  RH WIND       PRES   REMARKS
PULLMAN        LGT RAIN  45  42  89 S6        29.91S
LEWISTON, ID   LGT RAIN  48  46  93 SE3       29.91R
WALLA WALLA    CLOUDY    50  43  77 SE13      29.90F
PENDLETON, OR  LGT RAIN  46  42  86 S5        29.91F
$$



USA.gov is the U.S. government's official web portal to all federal, state and local government web resources and services.